Weather observations for the past three days for
Palmdale, Palmdale Production Flight Plant
Imperial (Metric)
Date Time (pdt) Wind (mph) Vis. (mi.) Weather Sky Cond. Temperature (ºF) Relative Humidity Wind Chill (°F) Heat Index (°F) Pressure Precipitation (in)
Air Dwpt 6 hour altimeter (in) sea level (mb) 1 hr 3 hr 6 hr
Max. Min.
15 13:53 SW 9 G 20 10.00 Fair CLR 100 46.9 16% 96 30.02 1013.0
15 12:53 Vrbl 6 10.00 Fair CLR 100 48 17% 97 30.05 1013.7
15 11:53 SW 7 10.00 Fair CLR 97 50 20% 94 30.07 1014.4
15 10:53 Calm 10.00 Fair CLR 93.9 51.1 93.9 73.9 23% 91 30.08 1015.0
15 09:53 Vrbl 3 10.00 Fair CLR 93 51.1 24% 90 30.1 1015.6
15 08:53 Calm 10.00 Fair CLR 87.1 50 28% 84 30.1 1016.0
15 07:53 S 3 10.00 Fair CLR 81 48.9 33% 80 30.11 1016.1
15 06:53 Calm 10.00 Fair CLR 75 50 42% 78 30.1 1015.9
15 05:53 W 7 10.00 Fair CLR 78.1 48 35% 78 30.07 1014.7
15 04:53 S 7 10.00 Fair CLR 75 48 84 75 39% 77 30.07 1014.7
15 03:53 S 8 10.00 Fair CLR 77 48.9 37% 78 30.07 1014.4
15 02:53 S 7 10.00 Fair CLR 77 48.9 37% 78 30.06 1014.3
15 01:53 Calm 10.00 Fair CLR 78.1 48.9 36% 79 30.07 1014.5
15 00:53 S 6 10.00 Fair CLR 79 48.9 35% 79 30.08 1014.8
14 23:53 Calm 10.00 Fair CLR 82 48 31% 81 30.09 1015.2
14 22:53 SW 15 10.00 Fair CLR 84 46 99 82.9 27% 82 30.09 1015.1
14 21:53 W 17 10.00 Fair CLR 82.9 48 30% 81 30.1 1015.8
14 20:53 W 13 10.00 Partly Cloudy SCT110 84.9 48.9 29% 83 30.08 1015.0
14 19:53 W 8 G 21 10.00 A Few Clouds FEW110 90 50 25% 87 30.06 1014.0
14 18:53 SW 17 G 26 10.00 Fair CLR 93 48 21% 90 30.02 1013.0
14 17:53 SW 22 G 35 10.00 Fair and Breezy CLR 96.1 52 23% 93 30.01 1012.7
14 16:53 SW 24 G 35 10.00 Fair and Breezy CLR 99 53.1 102.9 96.1 21% 97 30 1012.3
14 15:53 SW 23 G 31 10.00 Fair and Breezy CLR 100 52 20% 97 30.01 1012.7
14 14:53 SW 24 G 31 10.00 Fair and Breezy CLR 100.9 53.1 20% 99 30.03 1013.1
14 13:53 SW 13 G 24 10.00 Fair CLR 100.9 51.1 19% 98 30.05 1013.7
14 12:53 S 13 G 23 10.00 Fair CLR 102 48.9 17% 99 30.07 1014.3
14 11:53 S 7 10.00 Fair CLR 100 50 18% 97 30.08 1014.9
14 10:53 NW 6 10.00 Fair CLR 97 51.1 97 73.9 21% 94 30.09 1015.3
14 09:53 Calm 10.00 Fair CLR 93 51.1 24% 90 30.1 1015.6
14 08:53 E 6 10.00 Fair CLR 91 50 25% 88 30.1 1015.7
14 07:53 W 17 G 28 10.00 A Few Clouds FEW110 89.1 48.9 25% 86 30.1 1015.4
14 06:53 SW 18 G 29 10.00 Thunderstorm in Vicinity BKN120 84.9 48 28% 83 30.11 1015.8
14 05:53 SW 5 10.00 A Few Clouds FEW120 75.9 45 33% 77 30.08 1015.1
14 04:53 S 7 10.00 Fair CLR 73.9 48 82.9 73 40% 30.07 1014.6
14 03:53 SE 7 10.00 Fair CLR 73.9 48 40% 30.06 1014.4
14 02:53 S 7 10.00 Fair CLR 77 46.9 35% 78 30.05 1013.9
14 01:53 SW 5 10.00 Fair CLR 78.1 46.9 33% 78 30.06 1014.0
14 00:53 Calm 10.00 Fair CLR 80.1 46.9 31% 79 30.06 1014.2
13 23:53 SW 5 10.00 Fair CLR 81 48 32% 80 30.06 1014.0
13 22:53 Calm 10.00 Fair CLR 82.9 48 100.9 82.9 30% 81 30.06 1014.0
13 21:53 SW 8 10.00 Fair CLR 84.9 46.9 27% 82 30.04 1013.5
13 20:53 SW 8 10.00 Fair CLR 89.1 39.9 18% 85 30.02 1012.6
13 19:53 S 14 10.00 Fair CLR 91 43 19% 87 30.01 1012.7
13 18:53 W 7 10.00 Fair CLR 95 41 15% 91 30.01 1012.7
13 17:53 W 17 10.00 Fair CLR 98.1 44.1 16% 94 30 1012.2
13 16:53 SW 21 G 30 10.00 Fair and Breezy CLR 100.9 39 106 99 12% 96 29.97 1010.9
13 15:53 SW 23 G 32 10.00 Fair and Breezy CLR 100.9 55.9 22% 100 29.97 1011.0
13 14:53 SW 21 G 31 10.00 Fair and Breezy CLR 102.9 55 20% 102 29.97 1011.2
13 13:53 S 25 G 36 10.00 Fair and Breezy CLR 105.1 51.1 16% 102 29.98 1011.2
13 12:53 SW 13 G 24 10.00 Fair CLR 102 55 21% 101 29.99 1011.5
13 11:53 SW 14 10.00 Fair CLR 102 54 20% 100 30 1011.9
13 10:53 S 6 10.00 Fair CLR 99 51.1 99 73 20% 96 30 1011.8
13 09:53 Vrbl 3 10.00 Fair CLR 97 52 22% 94 30 1011.9
13 08:53 Calm 10.00 Fair CLR 93 51.1 24% 90 30 1012.1
13 07:53 Calm 10.00 Fair CLR 87.1 54 32% 85 29.99 1011.9
13 06:53 SW 8 10.00 Fair CLR 81 54 39% 81 29.97 1011.0
13 05:53 SE 3 10.00 Fair CLR 75 53.1 46% 78 29.96 1010.6
13 04:53 Calm 10.00 Fair CLR 80.1 52 88 78.1 38% 80 29.94 1009.7
13 03:53 SW 13 10.00 Fair CLR 82.9 51.1 33% 81 29.91 1008.9
13 02:53 SW 8 10.00 Fair CLR 81 46.9 30% 80 29.92 1008.9
13 01:53 S 8 10.00 Fair CLR 82.9 46.9 28% 81 29.91 1008.7
13 00:53 S 8 10.00 Fair CLR 84.9 48 28% 83 29.92 1009.0
12 23:53 S 9 10.00 Fair CLR 86 50 29% 84 29.92 1009.1
12 22:53 S 8 10.00 Fair CLR 87.1 52 107.1 86 30% 85 29.92 1009.3
12 21:53 S 9 10.00 Fair CLR 87.1 55 34% 85 29.92 1009.1
12 20:53 S 7 10.00 Fair CLR 90 53.1 28% 88 29.91 1008.7
12 19:53 S 21 G 28 10.00 Fair and Breezy CLR 91.9 55.9 30% 90 29.91 1009.1
12 18:53 SW 9 10.00 Fair CLR 99 50 19% 96 29.88 1007.9
12 17:53 W 12 10.00 Fair CLR 102 41 12% 97 29.86 1007.3
12 16:53 W 18 G 26 10.00 Fair CLR 106 37 109 98.1 9% 100 29.87 1007.3
12 15:53 W 20 10.00 Fair CLR 107.1 37 9% 101 29.88 1007.6
12 14:53 SW 20 G 29 10.00 Fair CLR 106 39.9 10% 101 29.89 1008.1
Date Time (pdt) Wind (mph) Vis. (mi.) Weather Sky Cond. Air Dwpt Max. Min. Relative Humidity Wind Chill (°F) Heat Index (°F) altimeter (in) sea level (mb) 1 hr 3 hr 6 hr
6 hour
Temperature (ºF) Pressure Precipitation (in)